Orbital Elements at Epoch 2459200.5 (2020-Dec-17.0) TDB
Reference: JPL 15 (heliocentric ecliptic J2000)
Element | Value | Uncertainty (1-sigma) | Units |
e | .09529101240890329 | 4.5443e-08 | |
a | 1.982075078338436 | 1.1034e-08 | au |
q | 1.79320113745311 | 8.768e-08 | au |
i | 24.0437609176304 | 5.2783e-06 | deg |
node | 67.37956063544188 | 1.1925e-05 | deg |
peri | 283.2638482445742 | 4.7679e-05 | deg |
M | 267.061310418121 | 5.529e-05 | deg |
tp | 2459463.631367180493 (2021-Sep-06.13136718) | 0.00015804 | TDB |
period | 1019.244973338288 2.79 | 8.5109e-06 2.33e-08 | d yr |
n | .3532026249007714 | 2.9493e-09 | deg/d |
Q | 2.170949019223762 | 1.2085e-08 | au |
|
| | Orbit Determination Parameters
Additional Information
|